When you browse on this site, cookies collect data to enhance your experience and personalize the content and advertising you see.
Visit our Privacy Policy to learn more. By continuing to use the site, you agree to this use of cookies and data.
  • In Deutschland
  • Länderverzeichnis
  • Für 7 Tage
  • Wassertemperatur
  • Wetterkarte
  • Widgets
  • user-avatar
    Anmelden

    Stündliche Wetter Darwin

    Heute, 23 August, Freitag

    Zeit Temperatur Niederschläge Wind Luftdruck Luftfeuchtigkeit
    00:00 +21°C° 0 mm 2 m/S 761 mmHg 61%
    01:00 +21°C° 0 mm 2 m/S 761 mmHg 59%
    02:00 +20°C° 0 mm 2 m/S 761 mmHg 58%
    03:00 +20°C° 0 mm 1 m/S 761 mmHg 59%
    04:00 +20°C° 0 mm 2 m/S 761 mmHg 61%
    05:00 +20°C° 0 mm 2 m/S 761 mmHg 62%
    06:00 +20°C° 0 mm 2 m/S 761 mmHg 64%
    07:00 +23°C° 0 mm 2 m/S 762 mmHg 60%
    08:00 +25°C° 0 mm 2 m/S 762 mmHg 56%
    09:00 +28°C° 0 mm 2 m/S 762 mmHg 56%
    10:00 +30°C° 0 mm 2 m/S 762 mmHg 45%
    11:00 +32°C° 0 mm 2 m/S 761 mmHg 34%
    12:00 +35°C° 0 mm 2 m/S 761 mmHg 23%
    13:00 +35°C° 0 mm 3 m/S 760 mmHg 25%
    14:00 +35°C° 0 mm 4 m/S 759 mmHg 28%
    15:00 +35°C° 0 mm 4 m/S 759 mmHg 28%
    16:00 +33°C° 0 mm 3 m/S 759 mmHg 35%
    17:00 +30°C° 0 mm 3 m/S 759 mmHg 43%
    18:00 +27°C° 0 mm 2 m/S 759 mmHg 51%
    19:00 +26°C° 0 mm 2 m/S 759 mmHg 63%
    20:00 +24°C° 0 mm 3 m/S 760 mmHg 74%
    21:00 +23°C° 0 mm 2 m/S 761 mmHg 72%
    22:00 +21°C° 0 mm 2 m/S 761 mmHg 75%
    23:00 +22°C° 0 mm 1 m/S 761 mmHg 79%

    Morgen, 24 August, Samstag

    Zeit Temperatur Niederschläge Wind Luftdruck Luftfeuchtigkeit
    00:00 +21°C° 0 mm 1 m/S 761 mmHg 82%
    01:00 +21°C° 0 mm 1 m/S 761 mmHg 81%
    02:00 +21°C° 0 mm 1 m/S 761 mmHg 80%
    03:00 +20°C° 0 mm 2 m/S 761 mmHg 79%
    04:00 +20°C° 0 mm 2 m/S 761 mmHg 81%
    05:00 +19°C° 0 mm 2 m/S 761 mmHg 84%
    06:00 +19°C° 0 mm 2 m/S 761 mmHg 87%
    07:00 +23°C° 0 mm 2 m/S 761 mmHg 74%
    08:00 +26°C° 0 mm 2 m/S 761 mmHg 61%
    09:00 +29°C° 0 mm 2 m/S 761 mmHg 48%
    10:00 +31°C° 0 mm 2 m/S 761 mmHg 40%
    11:00 +35°C° 0 mm 2 m/S 760 mmHg 31%
    12:00 +37°C° 0 mm 2 m/S 760 mmHg 23%
    13:00 +37°C° 0 mm 2 m/S 759 mmHg 24%
    14:00 +36°C° 0 mm 3 m/S 758 mmHg 26%
    15:00 +36°C° 0 mm 4 m/S 758 mmHg 27%
    16:00 +33°C° 0 mm 3 m/S 758 mmHg 37%
    17:00 +30°C° 0 mm 3 m/S 758 mmHg 46%
    18:00 +27°C° 0 mm 2 m/S 758 mmHg 56%
    19:00 +26°C° 0 mm 2 m/S 758 mmHg 64%
    20:00 +24°C° 0 mm 2 m/S 759 mmHg 73%
    21:00 +21°C° 0 mm 2 m/S 759 mmHg 81%
    22:00 +21°C° 0 mm 2 m/S 759 mmHg 80%
    23:00 +21°C° 0 mm 2 m/S 760 mmHg 79%

    übermorgen, 25 August, Sonntag

    Zeit Temperatur Niederschläge Wind Luftdruck Luftfeuchtigkeit
    00:00 +21°C° 0 mm 2 m/S 760 mmHg 77%
    01:00 +20°C° 0 mm 2 m/S 760 mmHg 81%
    02:00 +20°C° 0 mm 3 m/S 759 mmHg 86%
    03:00 +20°C° 0 mm 3 m/S 759 mmHg 90%
    04:00 +20°C° 0 mm 3 m/S 759 mmHg 92%
    05:00 +19°C° 0 mm 3 m/S 760 mmHg 93%
    06:00 +19°C° 0 mm 3 m/S 760 mmHg 95%
    07:00 +22°C° 0 mm 3 m/S 760 mmHg 83%
    08:00 +25°C° 0 mm 3 m/S 761 mmHg 71%
    09:00 +28°C° 0 mm 3 m/S 761 mmHg 58%
    10:00 +30°C° 0 mm 3 m/S 760 mmHg 47%
    11:00 +34°C° 0 mm 3 m/S 760 mmHg 36%
    12:00 +36°C° 0 mm 3 m/S 759 mmHg 24%
    13:00 +36°C° 0 mm 3 m/S 759 mmHg 26%
    14:00 +36°C° 0 mm 4 m/S 758 mmHg 27%
    15:00 +36°C° 0 mm 5 m/S 757 mmHg 28%
    16:00 +33°C° 0 mm 4 m/S 757 mmHg 34%
    17:00 +30°C° 0 mm 3 m/S 757 mmHg 40%
    18:00 +28°C° 0 mm 3 m/S 757 mmHg 47%
    19:00 +26°C° 0 mm 2 m/S 758 mmHg 54%
    20:00 +24°C° 0 mm 2 m/S 758 mmHg 62%
    21:00 +23°C° 0 mm 2 m/S 759 mmHg 70%
    22:00 +21°C° 0 mm 2 m/S 759 mmHg 74%
    23:00 +21°C° 0 mm 2 m/S 759 mmHg 79%

    26 August, Montag

    Zeit Temperatur Niederschläge Wind Luftdruck Luftfeuchtigkeit
    00:00 +21°C° 0 mm 2 m/S 760 mmHg 84%
    01:00 +21°C° 0 mm 2 m/S 759 mmHg 85%
    02:00 +21°C° 0 mm 2 m/S 759 mmHg 85%
    03:00 +21°C° 0 mm 2 m/S 759 mmHg 86%
    04:00 +21°C° 0 mm 2 m/S 759 mmHg 88%
    05:00 +20°C° 0 mm 2 m/S 759 mmHg 91%
    06:00 +20°C° 0 mm 2 m/S 760 mmHg 93%
    07:00 +23°C° 0 mm 2 m/S 760 mmHg 81%
    08:00 +26°C° 0 mm 2 m/S 760 mmHg 69%
    09:00 +28°C° 0 mm 3 m/S 761 mmHg 57%
    10:00 +30°C° 0 mm 3 m/S 760 mmHg 46%
    11:00 +34°C° 0 mm 3 m/S 760 mmHg 35%
    12:00 +36°C° 0 mm 3 m/S 760 mmHg 25%
    13:00 +36°C° 0 mm 4 m/S 759 mmHg 24%
    14:00 +36°C° 0 mm 4 m/S 758 mmHg 24%
    15:00 +37°C° 0 mm 4 m/S 757 mmHg 24%
    16:00 +34°C° 0 mm 4 m/S 757 mmHg 30%
    17:00 +32°C° 0 mm 4 m/S 757 mmHg 37%
    18:00 +28°C° 0 mm 4 m/S 757 mmHg 43%
    19:00 +26°C° 0 mm 3 m/S 758 mmHg 52%
    20:00 +25°C° 0 mm 3 m/S 759 mmHg 60%
    21:00 +23°C° 0 mm 2 m/S 759 mmHg 69%
    22:00 +23°C° 0 mm 2 m/S 760 mmHg 72%
    23:00 +23°C° 0 mm 2 m/S 760 mmHg 75%

    27 August, Dienstag

    Zeit Temperatur Niederschläge Wind Luftdruck Luftfeuchtigkeit
    00:00 +21°C° 0 mm 2 m/S 760 mmHg 78%
    01:00 +21°C° 0 mm 2 m/S 760 mmHg 82%
    02:00 +22°C° 0 mm 1 m/S 760 mmHg 85%
    03:00 +22°C° 0 mm 1 m/S 759 mmHg 89%
    04:00 +21°C° 0 mm 2 m/S 760 mmHg 90%
    05:00 +20°C° 0 mm 2 m/S 760 mmHg 92%
    06:00 +20°C° 0 mm 3 m/S 760 mmHg 93%
    07:00 +22°C° 0 mm 3 m/S 761 mmHg 80%
    08:00 +25°C° 0 mm 3 m/S 761 mmHg 67%
    09:00 +28°C° 0 mm 3 m/S 761 mmHg 53%
    10:00 +30°C° 0 mm 4 m/S 761 mmHg 42%
    11:00 +34°C° 0 mm 4 m/S 760 mmHg 31%
    12:00 +37°C° 0 mm 4 m/S 760 mmHg 19%
    13:00 +37°C° 0 mm 4 m/S 759 mmHg 18%
    14:00 +38°C° 0 mm 4 m/S 758 mmHg 18%
    15:00 +40°C° 0 mm 4 m/S 757 mmHg 17%
    16:00 +36°C° 0 mm 3 m/S 757 mmHg 25%
    17:00 +33°C° 0 mm 3 m/S 758 mmHg 33%
    18:00 +29°C° 0 mm 3 m/S 758 mmHg 41%
    19:00 +27°C° 0 mm 2 m/S 758 mmHg 48%
    20:00 +25°C° 0 mm 2 m/S 759 mmHg 55%
    21:00 +24°C° 0 mm 1 m/S 760 mmHg 62%
    22:00 +23°C° 0 mm 2 m/S 760 mmHg 64%
    23:00 +23°C° 0 mm 2 m/S 760 mmHg 67%

    28 August, Mittwoch

    Zeit Temperatur Niederschläge Wind Luftdruck Luftfeuchtigkeit
    00:00 +23°C° 0 mm 2 m/S 761 mmHg 69%
    01:00 +21°C° 0 mm 2 m/S 760 mmHg 73%
    02:00 +21°C° 0 mm 2 m/S 760 mmHg 77%
    03:00 +21°C° 0 mm 2 m/S 760 mmHg 81%
    04:00 +20°C° 0 mm 3 m/S 760 mmHg 82%
    05:00 +19°C° 0 mm 4 m/S 761 mmHg 83%
    06:00 +19°C° 0 mm 4 m/S 761 mmHg 84%
    07:00 +22°C° 0 mm 5 m/S 762 mmHg 67%
    08:00 +26°C° 0 mm 6 m/S 762 mmHg 50%
    09:00 +29°C° 0 mm 7 m/S 762 mmHg 33%
    10:00 +32°C° 0 mm 6 m/S 762 mmHg 29%
    11:00 +34°C° 0 mm 6 m/S 761 mmHg 24%
    12:00 +36°C° 0 mm 5 m/S 760 mmHg 20%
    13:00 +38°C° 0 mm 6 m/S 760 mmHg 19%
    14:00 +39°C° 0 mm 6 m/S 759 mmHg 18%
    15:00 +40°C° 0 mm 6 m/S 758 mmHg 16%
    16:00 +36°C° 0 mm 5 m/S 758 mmHg 23%
    17:00 +34°C° 0 mm 4 m/S 758 mmHg 30%
    18:00 +30°C° 0 mm 4 m/S 758 mmHg 37%
    19:00 +28°C° 0 mm 3 m/S 759 mmHg 43%
    20:00 +26°C° 0 mm 3 m/S 760 mmHg 50%
    21:00 +24°C° 0 mm 2 m/S 761 mmHg 57%
    22:00 +23°C° 0 mm 2 m/S 761 mmHg 58%
    23:00 +23°C° 0 mm 1 m/S 761 mmHg 59%
    Mehr zeigen